(204075) = 2003 WK

Discovered at Catalina on 2003-11-16 by CSS.

Orbit

Orbit type: Main Belt

Note: WebGL enabled browser required.

epoch2024-03-31.0
epoch JD2460400.5
perihelion date2023-10-27.68202
perihelion JD2460245.18202
argument of perihelion (°)5.26761
ascending node (°)95.43570
inclination (°)3.21772
eccentricity0.0154221
perihelion distance (AU)2.8145320
Tisserand w.r.t. Jupiter3.3
ΔV w.r.t. Earth (km/sec)10.5
semimajor axis (AU)2.8586178
mean anomaly (°)31.67316
mean daily motion (°/day)0.20392460
aphelion distance (AU)2.903
period (years)4.83
P-vector [x]-0.18557917
P-vector [y]0.89948255
P-vector [z]0.39559008
Q-vector [x]-0.98103926
Q-vector [y]-0.19249439
Q-vector [z]-0.02253622
absolute magnitude16.05
phase slope0.15
uncertainty0
referenceMPEC 2024-C93
observations used421
oppositions17
arc length (days)10157
first opposition used1996
last opposition used2024
residual rms (arc-secs)0.69
perturbers coarse indicatorM-v
perturbers precise indicator003Ek
first observation date used1996-04-18.0
last observation date used2024-02-08.0
computer nameMPCLINUX
JD of orbit computation2456731.629891
perihelion JD uncertainty (days)8.8668E-04
argument of perihelion uncertainty (°)2.1084E-04
ascending node uncertainty (°)1.0106E-04
inclination uncertainty (°)6.8238E-06
eccentricity uncertainty 6.1430E-08
perihelion distance uncertainty (AU)1.8774E-07
Minimum Orbit Intersection Distances (in AU)
for orbit epoch: 2460400.5, reference: E2024-GD4
Mercury2.43062
Venus2.09548
Earth1.83189
Mars1.16435
Jupiter2.09502
Saturn6.22714
Uranus15.6019
Neptune26.9801

Observations

434 total observations over interval: 1996 04 18.32639 – 2024 02 08.299282
These data are available for download (format description).

Date (UT) J2000 RA J2000 Dec Magn Location Ref
1996 04 18.32639 14 26 45.96 -09 57 56.7   691 – Steward Observatory, Kitt Peak-Spacewatch MPS 133115
1996 04 18.35038 14 26 44.77 -09 57 51.1   691 – Steward Observatory, Kitt Peak-Spacewatch MPS 133115
1996 04 18.37657 14 26 43.46 -09 57 45.2 20.3 V 691 – Steward Observatory, Kitt Peak-Spacewatch MPS 133115
2001 05 26.29178 15 04 42.71 -13 58 20.0 20.5 V 691 – Steward Observatory, Kitt Peak-Spacewatch MPS 133115
2001 05 26.31336 15 04 41.68 -13 58 17.3 20.6 V 691 – Steward Observatory, Kitt Peak-Spacewatch MPS 133115
2001 05 26.33443 15 04 40.68 -13 58 15.0 20.5 V 691 – Steward Observatory, Kitt Peak-Spacewatch MPS 133115
2003 11 16.24392 03 37 08.95 +16 04 17.7 19.5 V 703 – Catalina Sky Survey MPS 91145
2003 11 16.25523 03 37 08.29 +16 04 16.7 19.1 V 703 – Catalina Sky Survey MPS 91145
2003 11 16.26662 03 37 07.53 +16 04 15.3 19.8 V 703 – Catalina Sky Survey MPS 91145
2003 11 16.27802 03 37 06.96 +16 04 13.2 19.9 V 703 – Catalina Sky Survey MPS 91145
2003 11 18.26784 03 35 18.35 +15 59 36.0 20.1 V 691 – Steward Observatory, Kitt Peak-Spacewatch MPS 91145
2003 11 18.29622 03 35 16.75 +15 59 32.3 20.3 V 691 – Steward Observatory, Kitt Peak-Spacewatch MPS 91145
2003 11 18.32486 03 35 15.13 +15 59 27.8 20.2 V 691 – Steward Observatory, Kitt Peak-Spacewatch MPS 91145
2003 11 24.24431 03 29 53.83 +15 46 08.2 19.7 V 703 – Catalina Sky Survey MPS 91974
2003 11 24.25785 03 29 52.95 +15 46 04.3 18.7 V 703 – Catalina Sky Survey MPS 91974
2003 11 24.27138 03 29 52.30 +15 46 05.2 19.5 V 703 – Catalina Sky Survey MPS 91974
2003 11 24.28502 03 29 51.56 +15 46 02.0 19.7 V 703 – Catalina Sky Survey MPS 91974
2003 11 28.35846 03 26 17.28 +15 37 35.5 20.3 V 691 – Steward Observatory, Kitt Peak-Spacewatch MPS 91974
2003 11 28.38530 03 26 15.87 +15 37 32.2 20.3 V 691 – Steward Observatory, Kitt Peak-Spacewatch MPS 91974
2003 11 28.41237 03 26 14.44 +15 37 28.7 20.8 V 691 – Steward Observatory, Kitt Peak-Spacewatch MPS 91974
2003 12 18.09289 03 12 27.63 +15 11 54.0 20.7 V 691 – Steward Observatory, Kitt Peak-Spacewatch MPS 93760
2003 12 18.11951 03 12 26.79 +15 11 53.5 20.7 V 691 – Steward Observatory, Kitt Peak-Spacewatch MPS 93760
2003 12 18.14647 03 12 25.94 +15 11 52.7 20.6 V 691 – Steward Observatory, Kitt Peak-Spacewatch MPS 93760
2003 12 21.20451 03 11 00.75 +15 10 54.4 20.5 C 704 – Lincoln Laboratory ETS, New Mexico MPS 294344
2003 12 21.21773 03 11 00.31 +15 10 54.4 20.4   704 – Lincoln Laboratory ETS, New Mexico MPS 94758
2003 12 21.23117 03 10 59.96 +15 10 54.4 20.6   704 – Lincoln Laboratory ETS, New Mexico MPS 94758
2003 12 21.24437 03 10 59.63 +15 10 53.9 20.6   704 – Lincoln Laboratory ETS, New Mexico MPS 94758
2003 12 21.25772 03 10 59.24 +15 10 53.8 20.2   704 – Lincoln Laboratory ETS, New Mexico MPS 94758
2004 12 20.46157 10 42 25.31 +11 05 20.4 20.9 R G96 – Mt. Lemmon Survey MPS 133115
2004 12 20.47440 10 42 25.58 +11 05 20.1 21.1 R G96 – Mt. Lemmon Survey MPS 133115
2004 12 20.48727 10 42 25.85 +11 05 20.2 20.5 R G96 – Mt. Lemmon Survey MPS 133115
2004 12 20.50014 10 42 26.08 +11 05 19.3 20.9 R G96 – Mt. Lemmon Survey MPS 133115
2005 02 09.27911 10 30 34.17 +13 37 00.1 20.3 V 691 – Steward Observatory, Kitt Peak-Spacewatch MPS 133115
2005 02 09.30438 10 30 32.98 +13 37 08.8 20.4 V 691 – Steward Observatory, Kitt Peak-Spacewatch MPS 133115
2005 02 09.32955 10 30 31.78 +13 37 17.1 20.3 V 691 – Steward Observatory, Kitt Peak-Spacewatch MPS 133115
2006 05 21.32205 16 22 57.07 -18 59 18.1 19.5 V G96 – Mt. Lemmon Survey MPS 172017
2006 05 21.32927 16 22 56.71 -18 59 17.5 19.5 V G96 – Mt. Lemmon Survey MPS 172017
2006 05 21.33664 16 22 56.28 -18 59 17.2 19.5 V G96 – Mt. Lemmon Survey MPS 172017
2006 05 21.34400 16 22 55.88 -18 59 16.6 19.6 V G96 – Mt. Lemmon Survey MPS 172017
2007 09 11.23181 22 30 25.49 -14 04 35.7 20.8 V 691 – Steward Observatory, Kitt Peak-Spacewatch MPS 215106
2007 09 11.24944 22 30 24.65 -14 04 40.3 20.4 V 691 – Steward Observatory, Kitt Peak-Spacewatch MPS 215106
2007 09 11.26707 22 30 23.83 -14 04 44.2 20.5 V 691 – Steward Observatory, Kitt Peak-Spacewatch MPS 215106
2008 10 22.48463 05 05 47.90 +20 24 04.3 20.2 V 691 – Steward Observatory, Kitt Peak-Spacewatch MPS 260563
2008 10 22.50230 05 05 47.65 +20 24 03.8 20.2 V 691 – Steward Observatory, Kitt Peak-Spacewatch MPS 260563
2008 10 22.51998 05 05 47.41 +20 24 04.0 20.2 V 691 – Steward Observatory, Kitt Peak-Spacewatch MPS 260563
2008 10 30.44595 05 03 13.90 +20 21 52.4 20.3 V 691 – Steward Observatory, Kitt Peak-Spacewatch MPS 261448
2008 10 30.46367 05 03 13.39 +20 21 52.2 20.2 V 691 – Steward Observatory, Kitt Peak-Spacewatch MPS 261448
2008 10 30.48138 05 03 12.92 +20 21 51.7 20.2 V 691 – Steward Observatory, Kitt Peak-Spacewatch MPS 261448
2008 11 09.44414 04 57 41.27 +20 17 10.4 20.1 V 691 – Steward Observatory, Kitt Peak-Spacewatch MPS 264576
2008 11 09.46178 04 57 40.57 +20 17 09.8 20.0 V 691 – Steward Observatory, Kitt Peak-Spacewatch MPS 264576
2008 11 09.47943 04 57 39.80 +20 17 09.3 20.1 V 691 – Steward Observatory, Kitt Peak-Spacewatch MPS 264576
2008 11 18.31920 04 50 57.17 +20 11 16.9 19.8 V 691 – Steward Observatory, Kitt Peak-Spacewatch MPS 265206
2008 11 18.33683 04 50 56.26 +20 11 16.1 19.8 V 691 – Steward Observatory, Kitt Peak-Spacewatch MPS 265206
2008 11 18.35446 04 50 55.36 +20 11 15.1 19.7 V 691 – Steward Observatory, Kitt Peak-Spacewatch MPS 265206
2008 11 22.19795 04 47 36.05 +20 08 14.7   691 – Steward Observatory, Kitt Peak-Spacewatch MPS 266416
2008 11 22.21561 04 47 35.09 +20 08 13.9   691 – Steward Observatory, Kitt Peak-Spacewatch MPS 266416
2008 11 22.23328 04 47 34.13 +20 08 13.4   691 – Steward Observatory, Kitt Peak-Spacewatch MPS 266416
2008 11 24.01002 04 45 58.03 +20 06 45.5 19.7 V J75 – OAM Observatory, La Sagra MPS 266416
2008 11 24.02328 04 45 57.30 +20 06 44.9 19.1 V J75 – OAM Observatory, La Sagra MPS 266416
2008 11 24.03650 04 45 56.55 +20 06 44.0 19.2 V J75 – OAM Observatory, La Sagra MPS 266416
2008 11 24.27230 04 45 43.67 +20 06 33.0 19.9   704 – Lincoln Laboratory ETS, New Mexico MPS 266416
2008 11 24.28484 04 45 43.07 +20 06 31.5 19.7   704 – Lincoln Laboratory ETS, New Mexico MPS 266416
2008 11 24.29754 04 45 42.33 +20 06 32.6 20.0   704 – Lincoln Laboratory ETS, New Mexico MPS 266416
2008 11 24.31052 04 45 41.54 +20 06 31.4 20.1   704 – Lincoln Laboratory ETS, New Mexico MPS 266416
2008 12 01.28530 04 39 09.98 +20 00 28.3 19.8   704 – Lincoln Laboratory ETS, New Mexico MPS 267470
2008 12 01.29794 04 39 09.19 +20 00 28.1 19.6   704 – Lincoln Laboratory ETS, New Mexico MPS 267470
2008 12 01.31060 04 39 08.47 +20 00 26.3 20.1   704 – Lincoln Laboratory ETS, New Mexico MPS 267470
2008 12 20.23713 04 22 08.79 +19 45 38.4 19.4 V G96 – Mt. Lemmon Survey MPS 269232
2008 12 20.24436 04 22 08.47 +19 45 37.8 19.3 V G96 – Mt. Lemmon Survey MPS 269232
2008 12 20.26775 04 22 07.32 +19 45 37.2 19.3 V G96 – Mt. Lemmon Survey MPS 269232
2008 12 20.27898 04 22 06.78 +19 45 36.9 19.3 V G96 – Mt. Lemmon Survey MPS 269232
2008 12 21.19945 04 21 23.98 +19 45 07.4 19.7   704 – Lincoln Laboratory ETS, New Mexico MPS 269232
2008 12 21.21222 04 21 23.35 +19 45 08.2 20.0   704 – Lincoln Laboratory ETS, New Mexico MPS 269232
2008 12 21.23791 04 21 22.21 +19 45 06.0 19.9   704 – Lincoln Laboratory ETS, New Mexico MPS 269232
2008 12 21.25079 04 21 21.53 +19 45 06.6 19.8   704 – Lincoln Laboratory ETS, New Mexico MPS 269232
2008 12 22.08464 04 20 43.84 +19 44 40.4 19.9 V 691 – Steward Observatory, Kitt Peak-Spacewatch MPS 269232
2008 12 22.10350 04 20 42.96 +19 44 40.2 19.9 V 691 – Steward Observatory, Kitt Peak-Spacewatch MPS 269232
2008 12 22.12236 04 20 42.09 +19 44 39.2 19.9 V 691 – Steward Observatory, Kitt Peak-Spacewatch MPS 269232
2008 12 29.19946 04 15 54.75 +19 42 24.3 20.0   704 – Lincoln Laboratory ETS, New Mexico MPS 270094
2008 12 29.22479 04 15 53.77 +19 42 23.3 20.2   704 – Lincoln Laboratory ETS, New Mexico MPS 270094
2008 12 29.23755 04 15 53.29 +19 42 23.4 20.6   704 – Lincoln Laboratory ETS, New Mexico MPS 270094
2008 12 29.25029 04 15 52.82 +19 42 22.9 20.6   704 – Lincoln Laboratory ETS, New Mexico MPS 270094
2009 01 01.37234 04 14 08.19 +19 42 12.9 19.7 V G96 – Mt. Lemmon Survey MPS 270094
